Weather History for Boscobel, WI

Change the Weather History Date:

Sunday, November 24, 2013

  Actual Average (KPDC) Record (KPDC)
Temperature  
Mean Temperature 17 °F -  
Max Temperature 28 °F 41 °F 63 °F (1988)
Min Temperature 6 °F 23 °F -5 °F (1950)
Degree Days  
Heating Degree Days 48    
Moisture  
Dew Point 3 °F    
Average Humidity 55    
Maximum Humidity 83    
Minimum Humidity 28    
Precipitation  
Precipitation 0.00 in - - ()
Sea Level Pressure  
Sea Level Pressure 30.57 in    
Wind  
Wind Speed 7 mph (SSW)    
Max Wind Speed 15 mph    
Max Gust Speed 24 mph    
Visibility 10 miles    
Events      
Averages and records for this station are not official NWS values.
T = Trace of Precipitation, MM = Missing Value Source: NWS Daily Summary

Daily Weather History Graph

Daily Weather History Graph

Search for Another Location

Airport:

Trip Planner

Search our weather history database for the weather conditions in past years. The results will help you decide how hot, cold, wet, or windy it might be!

Date:

Astronomy

Nov. 24, 2013 Rise Set
Actual Time 7:06 AM CST 4:31 PM CST
Civil Twilight 6:35 AM CST 5:03 PM CST
Nautical Twilight 6:00 AM CST 5:38 PM CST
Astronomical Twilight 5:26 AM CST 6:12 PM CST
Moon 11:03 PM CST (11/24) 11:50 AM CST (11/24)
Length of Visible Light 10h 27m
Length of Day
9h 24m
Waning Gibbous, 60% of the Moon is Illuminated
Nov 24
Waning Gibbous
Nov 25
Last Quarter
Dec 2
New
Dec 9
First Quarter
Dec 17
Full

Hourly Weather History & Observations

Time (CST) Temp. Windchill Dew Point Humidity Pressure Visibility Wind Dir Wind Speed Gust Speed Precip Events Conditions
12:53 AM 8.1 °F 1.4 °F 3.0 °F 80% 30.77 in 10.0 mi SW 3.5 mph - N/A   Clear
1:53 AM 6.1 °F -0.9 °F 1.9 °F 83% 30.77 in 10.0 mi ENE 3.5 mph - N/A   Clear
2:53 AM 8.1 °F -0.5 °F 3.0 °F 80% 30.77 in 10.0 mi SSW 4.6 mph - N/A   Clear
3:53 AM 8.1 °F -0.5 °F 3.0 °F 80% 30.74 in 10.0 mi SSW 4.6 mph - N/A   Clear
4:53 AM 7.0 °F - 1.9 °F 80% 30.74 in 10.0 mi Calm Calm - N/A   Clear
5:53 AM 7.0 °F 0.1 °F 1.9 °F 80% 30.75 in 10.0 mi SSW 3.5 mph - N/A   Clear
6:53 AM 8.1 °F 1.4 °F 3.0 °F 80% 30.75 in 10.0 mi SSW 3.5 mph - N/A   Clear
7:53 AM 8.1 °F 1.4 °F 3.9 °F 83% 30.74 in 10.0 mi SSW 3.5 mph - N/A   Clear
8:53 AM 12.9 °F 3.8 °F 6.1 °F 74% 30.73 in 10.0 mi SW 5.8 mph - N/A   Clear
9:53 AM 19.0 °F 11.1 °F 6.1 °F 57% 30.71 in 10.0 mi Variable 5.8 mph - 0.00 in   Clear
10:53 AM 21.9 °F 11.0 °F 3.0 °F 44% 30.67 in 10.0 mi SSW 10.4 mph - 0.00 in   Clear
11:53 AM 25.0 °F 12.6 °F 1.9 °F 37% 30.61 in 10.0 mi SSW 15.0 mph - 0.00 in   Clear
12:53 PM 27.0 °F 16.7 °F 1.0 °F 33% 30.56 in 10.0 mi SW 11.5 mph 19.6 mph 0.00 in   Clear
1:53 PM 28.0 °F 18.1 °F -0.0 °F 30% 30.52 in 10.0 mi SW 11.5 mph - 0.00 in   Clear
2:53 PM 28.9 °F 18.2 °F -0.9 °F 28% 30.49 in 10.0 mi SSW 13.8 mph - 0.00 in   Clear
3:53 PM 28.0 °F 17.0 °F -0.0 °F 30% 30.46 in 10.0 mi SSW 13.8 mph 20.7 mph 0.00 in   Clear
4:53 PM 26.1 °F 16.8 °F 1.0 °F 34% 30.45 in 10.0 mi SSW 9.2 mph - 0.00 in   Clear
5:53 PM 25.0 °F 16.3 °F 3.0 °F 39% 30.43 in 10.0 mi SSW 8.1 mph - N/A   Clear
6:53 PM 24.1 °F 14.4 °F 5.0 °F 44% 30.40 in 10.0 mi SW 9.2 mph - N/A   Clear
7:53 PM 24.1 °F 13.7 °F 5.0 °F 44% 30.37 in 10.0 mi SW 10.4 mph - N/A   Clear
8:53 PM 24.1 °F 13.1 °F 5.0 °F 44% 30.35 in 10.0 mi SW 11.5 mph - N/A   Clear
9:53 PM 24.1 °F 11.5 °F 6.1 °F 46% 30.33 in 10.0 mi SSW 15.0 mph 24.2 mph N/A   Clear
10:53 PM 24.1 °F 11.5 °F 7.0 °F 48% 30.30 in 10.0 mi SSW 15.0 mph 21.9 mph N/A   Clear
11:53 PM 24.1 °F 12.0 °F 7.0 °F 48% 30.28 in 10.0 mi SSW 13.8 mph - N/A   Clear